METOP-C

Last updated on Thu Nov 21 2024 00:02:20 GMT+0000 (Coordinated Universal Time)

1 43689U 18087A 24325.54504159 .00000273 00000+0 14465-3 0 9997 2 43689 98.7045 22.8381 0001580 43.1039 317.0262 14.21478767313334
UTC large
Height (km)
Speed (km/s)
/
Latitude / Longitude
Inclination (degrees)
Orbital Period (minutes)
Azimuth
Elevation
Range (km)
Doppler Factor

Next 0 passes for location: London (51.5072 / 0.1276)

Sorry there are no passes over London.